Weather History for Fort Drum, NY

Change the Weather History Date:

Saturday, March 2, 2013

  Actual Average Record
Temperature  
Mean Temperature 19 °F -  
Max Temperature 21 °F 31 °F 53 °F (1997)
Min Temperature 17 °F 14 °F -2 °F (2003)
Degree Days  
Heating Degree Days 46    
Moisture  
Dew Point 16 °F    
Average Humidity 85    
Maximum Humidity 93    
Minimum Humidity 74    
Precipitation  
Precipitation 0.00 in - - ()
Sea Level Pressure  
Sea Level Pressure 29.89 in    
Wind  
Wind Speed 7 mph (NNW)    
Max Wind Speed 10 mph    
Max Gust Speed -    
Visibility 10 miles    
Events Snow    
Averages and records for this station are not official NWS values.
T = Trace of Precipitation, MM = Missing Value Source: NWS Daily Summary

Daily Weather History Graph

Daily Weather History Graph

Search for Another Location

Airport:

Trip Planner

Search our weather history database for the weather conditions in past years. The results will help you decide how hot, cold, wet, or windy it might be!

Date:

Astronomy

Mar. 02, 2013 Rise Set
Actual Time 6:37 AM EST 5:52 PM EST
Civil Twilight 6:08 AM EST 6:21 PM EST
Nautical Twilight 5:35 AM EST 6:55 PM EST
Astronomical Twilight 5:01 AM EST 7:28 PM EST
Moon 11:43 PM EST (3/2) 8:51 AM EST (3/2)
Length of Visible Light 12h 13m
Length of Day
11h 15m
Waning Gibbous, 74% of the Moon is Illuminated
Mar 2
Waning Gibbous
Mar 4
Last Quarter
Mar 11
New
Mar 19
First Quarter
Mar 27
Full

Hourly Weather History & Observations

Time (EST) Temp. Windchill Dew Point Humidity Pressure Visibility Wind Dir Wind Speed Gust Speed Precip Events Conditions
12:55 AM 21.6 °F 12.1 °F 19.6 °F 92% 29.90 in 10.0 mi NW 8.1 mph - 0.00 in Snow Light Snow
1:00 AM 21.2 °F 12.6 °F 19.4 °F 93% 29.90 in 10.0 mi NNW 6.9 mph - N/A Snow Light Snow
1:01 AM 21.2 °F 11.7 °F 19.4 °F 93% 29.90 in 10.0 mi NNW 8.1 mph - N/A Snow Light Snow
1:06 AM 21.2 °F 11.7 °F 19.4 °F 93% 29.90 in 10.0 mi NNW 8.1 mph - N/A Snow Light Snow
1:17 AM 21.2 °F 11.7 °F 19.4 °F 93% 29.90 in 7.0 mi NW 8.1 mph - N/A Snow Light Snow
1:35 AM 21.2 °F 12.6 °F 19.4 °F 93% 29.90 in 10.0 mi NNW 6.9 mph - N/A Snow Light Snow
1:36 AM 21.2 °F 12.6 °F 19.4 °F 93% 29.90 in 10.0 mi NW 6.9 mph - N/A Snow Light Snow
1:38 AM 21.2 °F 12.6 °F 19.4 °F 93% 29.90 in 10.0 mi NW 6.9 mph - N/A Snow Light Snow
1:39 AM 21.2 °F 11.7 °F 19.4 °F 93% 29.90 in 10.0 mi NW 8.1 mph - N/A Snow Light Snow
1:40 AM 21.2 °F 11.7 °F 19.4 °F 93% 29.90 in 9.0 mi NW 8.1 mph - N/A Snow Light Snow
1:45 AM 21.2 °F 12.6 °F 19.4 °F 93% 29.90 in 8.0 mi NW 6.9 mph - N/A Snow Light Snow
1:49 AM 21.2 °F 13.6 °F 19.4 °F 93% 29.90 in 8.0 mi NNW 5.8 mph - N/A Snow Light Snow
1:51 AM 21.2 °F 13.6 °F 19.4 °F 93% 29.90 in 8.0 mi NW 5.8 mph - N/A Snow Light Snow
1:55 AM 20.8 °F 12.1 °F 18.9 °F 92% 29.90 in 8.0 mi NNW 6.9 mph - 0.00 in Snow Light Snow
1:56 AM 21.2 °F 13.6 °F 19.4 °F 93% 29.90 in 8.0 mi NNW 5.8 mph - N/A Snow Light Snow
2:09 AM 21.2 °F 10.1 °F 19.4 °F 93% 29.89 in 9.0 mi NNW 10.4 mph - N/A Snow Light Snow
2:16 AM 21.2 °F 12.6 °F 19.4 °F 93% 29.89 in 10.0 mi NW 6.9 mph - N/A Snow Light Snow
2:27 AM 21.2 °F 10.9 °F 19.4 °F 93% 29.89 in 10.0 mi NW 9.2 mph - N/A Snow Light Snow
2:49 AM 21.2 °F 13.6 °F 19.4 °F 93% 29.89 in 10.0 mi NNW 5.8 mph - N/A Snow Light Snow
2:55 AM 20.3 °F 13.8 °F 18.1 °F 91% 29.89 in 10.0 mi NNW 4.6 mph - 0.00 in Snow Light Snow
2:56 AM 21.2 °F 13.6 °F 17.6 °F 86% 29.89 in 10.0 mi NNW 5.8 mph - N/A Snow Light Snow
3:00 AM 21.2 °F 12.6 °F 17.6 °F 86% 29.89 in 10.0 mi NW 6.9 mph - N/A Snow Light Snow
3:03 AM 21.2 °F 12.6 °F 17.6 °F 86% 29.89 in 10.0 mi NW 6.9 mph - N/A Snow Light Snow
3:11 AM 21.2 °F 12.6 °F 17.6 °F 86% 29.89 in 10.0 mi NW 6.9 mph - N/A Snow Light Snow
3:15 AM 21.2 °F 12.6 °F 17.6 °F 86% 29.89 in 10.0 mi NW 6.9 mph - N/A Snow Light Snow
3:16 AM 21.2 °F 12.6 °F 17.6 °F 86% 29.89 in 10.0 mi NW 6.9 mph - N/A Snow Light Snow
3:28 AM 19.4 °F 10.4 °F 17.6 °F 93% 29.88 in 10.0 mi NNW 6.9 mph - N/A Snow Light Snow
3:39 AM 19.4 °F 9.5 °F 17.6 °F 93% 29.89 in 10.0 mi NW 8.1 mph - N/A Snow Light Snow
3:48 AM 19.4 °F 9.5 °F 17.6 °F 93% 29.89 in 10.0 mi NNW 8.1 mph - N/A Snow Light Snow
3:55 AM 19.9 °F 9.3 °F 17.8 °F 91% 29.89 in 10.0 mi NNW 9.2 mph - 0.00 in Snow Light Snow
4:10 AM 19.4 °F 10.4 °F 17.6 °F 93% 29.88 in 10.0 mi NNW 6.9 mph - N/A Snow Light Snow
4:14 AM 19.4 °F 11.5 °F 17.6 °F 93% 29.88 in 10.0 mi NNW 5.8 mph - N/A Snow Light Snow
4:16 AM 19.4 °F 12.8 °F 17.6 °F 93% 29.89 in 10.0 mi NW 4.6 mph - N/A Snow Light Snow
4:19 AM 19.4 °F 11.5 °F 17.6 °F 93% 29.88 in 10.0 mi NW 5.8 mph - N/A Snow Light Snow
4:24 AM 19.4 °F 10.4 °F 17.6 °F 93% 29.88 in 10.0 mi NW 6.9 mph - N/A Snow Light Snow
4:26 AM 19.4 °F 10.4 °F 17.6 °F 93% 29.88 in 10.0 mi NW 6.9 mph - N/A Snow Light Snow
4:33 AM 19.4 °F 10.4 °F 17.6 °F 93% 29.89 in 10.0 mi NNW 6.9 mph - N/A Snow Light Snow
4:35 AM 19.4 °F 10.4 °F 17.6 °F 93% 29.89 in 10.0 mi NNW 6.9 mph - N/A Snow Light Snow
4:55 AM 19.4 °F 10.4 °F 17.4 °F 92% 29.89 in 10.0 mi NW 6.9 mph - 0.00 in Snow Light Snow
5:06 AM 19.4 °F 9.5 °F 17.6 °F 93% 29.89 in 10.0 mi NNW 8.1 mph - N/A   Overcast
5:13 AM 19.4 °F 11.5 °F 17.6 °F 93% 29.89 in 10.0 mi NNW 5.8 mph - N/A   Overcast
5:32 AM 19.4 °F 11.5 °F 17.6 °F 93% 29.89 in 10.0 mi NW 5.8 mph - N/A   Overcast
5:55 AM 19.0 °F 10.0 °F 16.5 °F 90% 29.89 in 10.0 mi NNW 6.9 mph - 0.00 in   Overcast
6:03 AM 19.4 °F 9.5 °F 15.8 °F 86% 29.90 in 10.0 mi NNW 8.1 mph - N/A   Overcast
6:04 AM 19.4 °F 9.5 °F 15.8 °F 86% 29.90 in 10.0 mi NNW 8.1 mph - N/A Snow Light Snow
6:26 AM 19.4 °F 9.5 °F 15.8 °F 86% 29.90 in 10.0 mi North 8.1 mph - N/A   Overcast
6:32 AM 19.4 °F 9.5 °F 15.8 °F 86% 29.90 in 10.0 mi NNW 8.1 mph - N/A Snow Light Snow
6:50 AM 17.6 °F 7.3 °F 15.8 °F 93% 29.90 in 9.0 mi NNW 8.1 mph - N/A Snow Light Snow
6:55 AM 18.1 °F 8.9 °F 15.4 °F 89% 29.90 in 6.0 mi NNW 6.9 mph - 0.00 in Snow Light Snow
6:58 AM 17.6 °F 7.3 °F 15.8 °F 93% 29.91 in 5.0 mi NNW 8.1 mph - N/A Snow Light Snow
7:01 AM 17.6 °F 8.2 °F 15.8 °F 93% 29.91 in 6.0 mi North 6.9 mph - N/A Snow Light Snow
7:10 AM 17.6 °F 8.2 °F 15.8 °F 93% 29.91 in 7.0 mi NNW 6.9 mph - N/A Snow Light Snow
7:11 AM 17.6 °F 8.2 °F 15.8 °F 93% 29.91 in 7.0 mi NNW 6.9 mph - N/A Snow Light Snow
7:23 AM 17.6 °F 7.3 °F 15.8 °F 93% 29.91 in 9.0 mi NNW 8.1 mph - N/A Snow Light Snow
7:43 AM 17.6 °F 8.2 °F 14.0 °F 86% 29.91 in 9.0 mi NNW 6.9 mph - N/A Snow Light Snow
7:53 AM 17.6 °F 8.2 °F 14.0 °F 86% 29.91 in 10.0 mi NNW 6.9 mph - N/A Snow Light Snow
7:55 AM 17.8 °F 8.5 °F 14.7 °F 88% 29.91 in 10.0 mi NNW 6.9 mph - 0.00 in Snow Light Snow
7:56 AM 17.6 °F 8.2 °F 14.0 °F 86% 29.91 in 10.0 mi NNW 6.9 mph - N/A Snow Light Snow
7:59 AM 17.6 °F 8.2 °F 14.0 °F 86% 29.91 in 10.0 mi NNW 6.9 mph - N/A Snow Light Snow
8:32 AM 17.6 °F 9.3 °F 14.0 °F 86% 29.91 in 10.0 mi NW 5.8 mph - N/A Snow Light Snow
8:55 AM 17.8 °F 6.6 °F 14.0 °F 85% 29.91 in 10.0 mi NNW 9.2 mph - 0.00 in Snow Light Snow
9:00 AM 17.6 °F 8.2 °F 14.0 °F 86% 29.91 in 10.0 mi NW 6.9 mph - N/A   Overcast
9:55 AM 18.0 °F 9.8 °F 13.6 °F 83% 29.91 in 10.0 mi NNW 5.8 mph - 0.00 in   Overcast
10:07 AM 17.6 °F 8.2 °F 14.0 °F 86% 29.91 in 10.0 mi NNW 6.9 mph - N/A Snow Light Snow
10:29 AM 17.6 °F 7.3 °F 14.0 °F 86% 29.91 in 10.0 mi NW 8.1 mph - N/A   Overcast
10:31 AM 17.6 °F 8.2 °F 14.0 °F 86% 29.91 in 10.0 mi NNW 6.9 mph - N/A Snow Light Snow
10:41 AM 17.6 °F 7.3 °F 14.0 °F 86% 29.91 in 10.0 mi North 8.1 mph - N/A   Overcast
10:55 AM 18.3 °F 11.5 °F 14.0 °F 83% 29.91 in 10.0 mi NNW 4.6 mph - 0.00 in Snow Light Snow
11:11 AM 17.6 °F 8.2 °F 14.0 °F 86% 29.90 in 10.0 mi NW 6.9 mph - N/A   Overcast
11:20 AM 17.6 °F 9.3 °F 14.0 °F 86% 29.90 in 10.0 mi NW 5.8 mph - N/A Snow Light Snow
11:26 AM 17.6 °F 9.3 °F 14.0 °F 86% 29.90 in 10.0 mi NNW 5.8 mph - N/A   Overcast
11:27 AM 17.6 °F 9.3 °F 14.0 °F 86% 29.90 in 10.0 mi NNW 5.8 mph - N/A Snow Light Snow
11:43 AM 17.6 °F 9.3 °F 15.8 °F 93% 29.90 in 10.0 mi NNW 5.8 mph - N/A   Overcast
11:55 AM 18.3 °F 10.2 °F 15.3 °F 88% 29.90 in 10.0 mi NW 5.8 mph - 0.00 in   Overcast
12:01 PM 19.4 °F 11.5 °F 15.8 °F 86% 29.90 in 10.0 mi NW 5.8 mph - N/A   Overcast
12:07 PM 19.4 °F 11.5 °F 14.0 °F 80% 29.90 in 10.0 mi NW 5.8 mph - N/A   Overcast
12:21 PM 19.4 °F 11.5 °F 14.0 °F 80% 29.89 in 10.0 mi NW 5.8 mph - N/A   Overcast
12:44 PM 19.4 °F 11.5 °F 14.0 °F 80% 29.88 in 10.0 mi NNW 5.8 mph - N/A   Overcast
12:55 PM 19.2 °F 11.3 °F 14.5 °F 82% 29.88 in 10.0 mi NNW 5.8 mph - 0.00 in   Overcast
1:06 PM 19.4 °F 12.8 °F 14.0 °F 80% 29.88 in 10.0 mi NW 4.6 mph - N/A   Overcast
1:16 PM 19.4 °F 9.5 °F 14.0 °F 80% 29.88 in 10.0 mi NW 8.1 mph - N/A   Overcast
1:24 PM 19.4 °F 10.4 °F 14.0 °F 80% 29.88 in 10.0 mi NW 6.9 mph - N/A   Overcast
1:38 PM 19.4 °F 11.5 °F 14.0 °F 80% 29.88 in 10.0 mi NW 5.8 mph - N/A   Overcast
1:42 PM 19.4 °F 11.5 °F 14.0 °F 80% 29.88 in 10.0 mi North 5.8 mph - N/A   Overcast
1:55 PM 19.9 °F 12.1 °F 13.8 °F 77% 29.87 in 10.0 mi NNW 5.8 mph - 0.00 in   Overcast
2:07 PM 19.4 °F 10.4 °F 14.0 °F 80% 29.87 in 10.0 mi NW 6.9 mph - N/A   Overcast
2:17 PM 21.2 °F 13.6 °F 14.0 °F 74% 29.88 in 10.0 mi WNW 5.8 mph - N/A   Overcast
2:47 PM 19.4 °F 10.4 °F 14.0 °F 80% 29.87 in 10.0 mi NW 6.9 mph - N/A   Overcast
2:48 PM 19.4 °F 10.4 °F 14.0 °F 80% 29.87 in 10.0 mi NW 6.9 mph - N/A   Overcast
2:50 PM 19.4 °F 10.4 °F 14.0 °F 80% 29.87 in 10.0 mi NW 6.9 mph - N/A   Overcast
2:55 PM 20.3 °F 12.5 °F 14.2 °F 77% 29.87 in 10.0 mi NNW 5.8 mph - 0.00 in   Overcast
2:57 PM 21.2 °F 12.6 °F 14.0 °F 74% 29.87 in 10.0 mi NNW 6.9 mph - N/A   Overcast
2:58 PM 21.2 °F 11.7 °F 14.0 °F 74% 29.87 in 10.0 mi North 8.1 mph - N/A   Overcast
3:19 PM 21.2 °F 14.9 °F 14.0 °F 74% 29.87 in 10.0 mi NW 4.6 mph - N/A   Overcast
3:20 PM 21.2 °F 13.6 °F 14.0 °F 74% 29.87 in 10.0 mi WNW 5.8 mph - N/A   Overcast
3:30 PM 21.2 °F 13.6 °F 14.0 °F 74% 29.87 in 10.0 mi WNW 5.8 mph - N/A   Overcast
3:31 PM 21.2 °F 13.6 °F 14.0 °F 74% 29.87 in 10.0 mi WNW 5.8 mph - N/A   Overcast
3:48 PM 21.2 °F 14.9 °F 14.0 °F 74% 29.87 in 10.0 mi WNW 4.6 mph - N/A   Overcast
3:55 PM 20.5 °F 11.7 °F 14.5 °F 78% 29.87 in 10.0 mi NW 6.9 mph - 0.00 in   Overcast
4:09 PM 21.2 °F 13.6 °F 14.0 °F 74% 29.87 in 10.0 mi NW 5.8 mph - N/A   Overcast
4:27 PM 21.2 °F 13.6 °F 14.0 °F 74% 29.87 in 10.0 mi NW 5.8 mph - N/A   Overcast
4:55 PM 20.1 °F 12.3 °F 14.2 °F 78% 29.88 in 10.0 mi North 5.8 mph - 0.00 in   Overcast
5:00 PM 19.4 °F 9.5 °F 14.0 °F 80% 29.88 in 10.0 mi North 8.1 mph - N/A Snow Light Snow
5:01 PM 19.4 °F 9.5 °F 14.0 °F 80% 29.88 in 10.0 mi North 8.1 mph - N/A   Overcast
5:23 PM 19.4 °F 11.5 °F 14.0 °F 80% 29.88 in 10.0 mi NNW 5.8 mph - N/A Snow Light Snow
5:33 PM 19.4 °F 11.5 °F 14.0 °F 80% 29.88 in 10.0 mi NNW 5.8 mph - N/A   Overcast
5:49 PM 19.4 °F 14.3 °F 14.0 °F 80% 29.89 in 10.0 mi NNW 3.5 mph - N/A   Overcast
5:51 PM 19.4 °F 12.8 °F 14.0 °F 80% 29.89 in 10.0 mi North 4.6 mph - N/A   Overcast
5:52 PM 19.4 °F 11.5 °F 14.0 °F 80% 29.89 in 10.0 mi North 5.8 mph - N/A   Overcast
5:55 PM 19.8 °F 13.2 °F 14.0 °F 78% 29.89 in 10.0 mi NNW 4.6 mph - 0.00 in   Overcast
6:13 PM 19.4 °F 12.8 °F 14.0 °F 80% 29.89 in 10.0 mi NNW 4.6 mph - N/A   Overcast
6:19 PM 19.4 °F 14.3 °F 14.0 °F 80% 29.89 in 10.0 mi NW 3.5 mph - N/A   Overcast
6:28 PM 19.4 °F 14.3 °F 14.0 °F 80% 29.89 in 10.0 mi NW 3.5 mph - N/A   Overcast
6:37 PM 19.4 °F 14.3 °F 14.0 °F 80% 29.89 in 10.0 mi NNW 3.5 mph - N/A   Overcast
6:47 PM 19.4 °F 14.3 °F 14.0 °F 80% 29.89 in 10.0 mi NNW 3.5 mph - N/A   Overcast
6:49 PM 19.4 °F - 14.0 °F 80% 29.90 in 10.0 mi Calm Calm - N/A   Overcast
6:55 PM 19.8 °F 14.7 °F 14.0 °F 78% 29.89 in 10.0 mi North 3.5 mph - N/A   Overcast
7:33 PM 19.4 °F - 14.0 °F 80% 29.89 in 10.0 mi Calm Calm - N/A Snow Light Snow
7:43 PM 19.4 °F 14.3 °F 14.0 °F 80% 29.89 in 10.0 mi NNW 3.5 mph - N/A   Overcast
7:55 PM 19.6 °F 14.5 °F 14.2 °F 80% 29.89 in 10.0 mi NNW 3.5 mph - 0.00 in   Overcast
8:52 PM 19.4 °F 11.5 °F 14.0 °F 80% 29.89 in 10.0 mi NW 5.8 mph - N/A Snow Light Snow
8:55 PM 19.4 °F 11.5 °F 14.7 °F 82% 29.89 in 10.0 mi NNW 5.8 mph - 0.00 in Snow Light Snow
9:01 PM 19.4 °F 11.5 °F 14.0 °F 80% 29.89 in 10.0 mi NW 5.8 mph - N/A   Overcast
9:31 PM 19.4 °F 12.8 °F 14.0 °F 80% 29.89 in 10.0 mi NNW 4.6 mph - N/A Snow Light Snow
9:42 PM 19.4 °F 12.8 °F 14.0 °F 80% 29.89 in 10.0 mi NNW 4.6 mph - N/A Snow Light Snow
9:51 PM 19.4 °F 11.5 °F 14.0 °F 80% 29.88 in 10.0 mi NNW 5.8 mph - N/A Snow Light Snow
9:55 PM 19.0 °F 13.9 °F 14.2 °F 81% 29.88 in 10.0 mi North 3.5 mph - 0.00 in Snow Light Snow
10:15 PM 19.4 °F 11.5 °F 14.0 °F 80% 29.88 in 10.0 mi North 5.8 mph - N/A Snow Light Snow
10:16 PM 19.4 °F 11.5 °F 14.0 °F 80% 29.88 in 10.0 mi North 5.8 mph - N/A Snow Light Snow
10:21 PM 19.4 °F 12.8 °F 14.0 °F 80% 29.88 in 10.0 mi North 4.6 mph - N/A Snow Light Snow
10:23 PM 19.4 °F 12.8 °F 14.0 °F 80% 29.88 in 10.0 mi North 4.6 mph - N/A Snow Light Snow
10:51 PM 19.4 °F 12.8 °F 15.8 °F 86% 29.87 in 9.0 mi NW 4.6 mph - N/A Snow Light Snow
10:55 PM 18.5 °F 11.7 °F 15.4 °F 88% 29.87 in 9.0 mi NW 4.6 mph - 0.00 in Snow Light Snow
10:58 PM 19.4 °F 12.8 °F 15.8 °F 86% 29.87 in 9.0 mi NW 4.6 mph - N/A Snow Light Snow
11:08 PM 19.4 °F 12.8 °F 15.8 °F 86% 29.87 in 9.0 mi NW 4.6 mph - N/A Snow Light Snow
11:37 PM 17.6 °F 10.7 °F 15.8 °F 93% 29.86 in 5.0 mi NW 4.6 mph - N/A Snow Light Snow
11:55 PM 18.1 °F 12.9 °F 15.8 °F 91% 29.86 in 7.0 mi NW 3.5 mph - 0.00 in Snow Light Snow